{"data":{"norad_id":54071,"epoch":"2026-09-20T11:20:43.835712Z","epoch_age_seconds":88606,"freshness":"FRESH","line1":"1 54071U 22136W   26263.47272958  .00000177  00000+0  16374-4 0  9993","line2":"2 54071  53.1618 177.5346 0001043  87.5216 272.5906 15.34386308216419","mean_motion":15.34386308,"eccentricity":0.0001043,"inclination_deg":53.1618,"raan_deg":177.5346,"arg_perigee_deg":87.5216,"mean_anomaly_deg":272.5906,"bstar":1.6374e-5,"rev_number":21641,"period_min":93.848595525919,"perigee_km":462.03043213756,"apogee_km":463.45743990081,"semimajor_km":6840.8809360192,"source":"CELESTRAK","updated_at":"2026-09-21T09:00:33.079536Z"}}